Home > Time Zones > World Clock > Weather > Italy > Turin > Past weeks

Flag for Italy Weather past 2 weeks in Turin, Italy

Now
39 °F

Sunny.


Feels Like: 36 °F
Forecast: 35 / 66 °F
Wind: 5 mph from North

Location: Torino / Bric Della Croce

Current Time: Apr 19, 2015 at 11:00:22 AM

Latest Report: Apr 19, 2015 at 9:55 AM


Visibility: 10 mi

Pressure: 30.12 "Hg

Humidity: 93%

Dew point: 37 °F

Location of TurinLocation

Historic Weather in Turin — Graph

°F

Turin temperature yesterday

Maximum temperature yesterday: 61 °F (at 3:55 PM)
Minimum temperature yesterday: 43 °F (at 11:55 PM)
Average temperature yesterday: 53 °F

Past Weeks' High & Low Weather Summary

 TemperatureHumidityPressure
High70 °F (Apr 13, 5:55 PM)100% (Apr 4, 10:55 PM)30.42 "Hg (Apr 4, 10:55 PM)
Low36 °F (Apr 5, 10:55 PM)10% (Apr 8, 3:55 AM)29.71 "Hg (Apr 4, 4:55 PM)
Average53 °F59%30.16 "Hg
* Reported Apr 4 9:55 AM — Apr 19 9:55 AM, Turin, Weather by CustomWeather, © 2015

Note: Actual official high and low records may vary slightly from our data, if they occured in-between our weather recording intervals... More about our weather records

Advertising

Turin weather history for previous 24 hours

 ConditionsComfort  
Time TempWeatherWind HumidityBarometerVisibility
9:55 AM
Sun, Apr 19
39 °FSunny.5 mph93%30.12 "Hg10 mi
8:55 AM39 °FScattered clouds.6 mph87%30.12 "HgN/A
7:55 AM37 °FSunny.10 mph100%30.12 "Hg10 mi
6:55 AM37 °FClear.12 mph100%30.09 "Hg4 mi
5:55 AM37 °FFog.14 mph100%30.09 "Hg0 mi
4:55 AM39 °FLight rain. Fog.18 mph100%30.09 "Hg0 mi
3:55 AM39 °FLight rain. Fog.18 mph100%30.09 "Hg0 mi
2:55 AM39 °FRain. Fog.18 mph100%30.07 "Hg0 mi
1:55 AM41 °FRain. Fog.24 mph100%30.07 "Hg0 mi
12:55 AM41 °FRain. Fog.17 mph100%30.04 "Hg0 mi
11:55 PM
Sat, Apr 18
43 °FRain. Fog.18 mph100%30.01 "Hg0 mi
10:55 PM48 °FLight rain. Fog.13 mph100%29.98 "Hg0 mi
9:55 PM55 °FPassing clouds.6 mph88%29.95 "HgN/A
8:55 PM55 °FScattered clouds.6 mph82%29.92 "HgN/A
7:55 PM55 °FScattered clouds.9 mph100%29.89 "HgN/A
6:55 PM57 °FThunderstorms. Scattered clouds.9 mph100%29.89 "HgN/A
5:55 PM59 °FScattered clouds.3 mph72%29.89 "HgN/A
4:55 PM61 °FScattered clouds.3 mph59%29.89 "HgN/A
3:55 PM61 °FScattered clouds.5 mph63%29.89 "HgN/A
2:55 PM59 °FScattered clouds.6 mph72%29.89 "HgN/A
1:55 PM57 °FScattered clouds.No wind82%29.92 "HgN/A
12:55 PM57 °FPartly sunny.5 mph82%29.92 "HgN/A
11:55 AM54 °FPassing clouds.No wind88%29.92 "HgN/A
Weather by CustomWeather, © 2015

See weather overviewHow to use our weather pages